TimePDT,TemperatureF,Dew PointF,Humidity,Sea Level PressureIn,VisibilityMPH,Wind Direction,Wind SpeedMPH,Gust SpeedMPH,PrecipitationIn,Events,Conditions,WindDirDegrees,DateUTC
12:53 AM,57.0,51.1,81,29.96,10.0,Calm,Calm,-,N/A,,Overcast,0,2013-03-27 07:53:00
1:53 AM,57.0,50.0,77,29.95,10.0,Calm,Calm,-,N/A,,Overcast,0,2013-03-27 08:53:00
2:53 AM,57.9,50.0,75,29.94,10.0,SSW,3.5,-,N/A,,Overcast,200,2013-03-27 09:53:00
3:53 AM,57.0,50.0,77,29.94,10.0,Calm,Calm,-,N/A,,Overcast,0,2013-03-27 10:53:00
4:53 AM,57.9,50.0,75,29.94,10.0,Calm,Calm,-,N/A,,Overcast,0,2013-03-27 11:53:00
5:53 AM,57.9,50.0,75,29.95,10.0,ESE,3.5,-,N/A,,Overcast,120,2013-03-27 12:53:00
6:53 AM,57.9,48.9,72,29.96,10.0,South,5.8,-,N/A,,Overcast,170,2013-03-27 13:53:00
7:53 AM,57.9,48.0,70,29.99,9.0,SSE,6.9,-,N/A,,Overcast,160,2013-03-27 14:53:00
8:53 AM,57.9,48.0,70,29.99,10.0,SSE,4.6,-,N/A,,Overcast,150,2013-03-27 15:53:00
9:53 AM,60.1,48.0,64,30.01,10.0,Calm,Calm,-,N/A,,Mostly Cloudy,0,2013-03-27 16:53:00
10:53 AM,62.1,48.9,62,30.01,10.0,Variable,4.6,-,N/A,,Mostly Cloudy,0,2013-03-27 17:53:00
11:21 AM,64.4,48.2,56,30.01,10.0,Variable,4.6,-,N/A,,Mostly Cloudy,0,2013-03-27 18:21:00
11:53 AM,64.9,48.9,56,30.01,10.0,SW,9.2,-,N/A,,Mostly Cloudy,230,2013-03-27 18:53:00
12:53 PM,64.0,51.1,63,30.00,10.0,SSW,12.7,-,N/A,,Mostly Cloudy,210,2013-03-27 19:53:00
1:53 PM,64.0,50.0,60,30.00,10.0,SW,12.7,19.6,N/A,,Partly Cloudy,220,2013-03-27 20:53:00
2:53 PM,63.0,50.0,63,29.99,10.0,SW,13.8,-,N/A,,Scattered Clouds,220,2013-03-27 21:53:00
3:53 PM,63.0,50.0,63,29.98,10.0,SSW,11.5,-,N/A,,Scattered Clouds,210,2013-03-27 22:53:00
4:53 PM,62.1,51.1,67,29.98,10.0,SW,12.7,-,N/A,,Scattered Clouds,220,2013-03-27 23:53:00
5:53 PM,60.1,51.1,72,29.99,10.0,SSW,10.4,-,N/A,,Scattered Clouds,200,2013-03-28 00:53:00
6:53 PM,57.9,51.1,78,30.00,10.0,SSW,9.2,-,N/A,,Scattered Clouds,210,2013-03-28 01:53:00
7:53 PM,57.0,51.1,81,30.01,10.0,South,6.9,-,N/A,,Scattered Clouds,180,2013-03-28 02:53:00
8:41 PM,57.2,51.8,82,30.03,10.0,SW,4.6,-,N/A,,Mostly Cloudy,220,2013-03-28 03:41:00
8:53 PM,57.9,51.1,78,30.03,10.0,SSW,4.6,-,N/A,,Mostly Cloudy,210,2013-03-28 03:53:00
9:53 PM,57.9,51.1,78,30.04,10.0,SSE,5.8,-,N/A,,Mostly Cloudy,160,2013-03-28 04:53:00
10:23 PM,57.2,51.8,82,30.05,10.0,SSE,4.6,-,N/A,,Scattered Clouds,150,2013-03-28 05:23:00
10:53 PM,55.9,51.1,84,30.05,10.0,SSE,3.5,-,N/A,,Scattered Clouds,160,2013-03-28 05:53:00
11:53 PM,55.9,50.0,80,30.05,10.0,Calm,Calm,-,N/A,,Clear,0,2013-03-28 06:53:00